Date String (YYYY-MM-DD hh:mm:ss) UTC,Instrument flags,Ambient pressure (hPa),Sample flow (lpm),Bypass flow (lpm),Sample temperature (°C),Ambient temperature (°C),ASC tube jacket temperature (°C),LED temperature (°C),Box temperature (°C),Sample RH (%),Span deviation,Mass concentration (μg/m³),Mass concentration (μg/m³),Mass concentration (μg/m³)
DateTimeUTC,F1_M11,P_M11,Q1_M11,Q2_M11,T1_M11,T2_M11,T3_M11,T4_M11,T5_M11,U1_M11,ZSPAN_M11,X0_M11,X2_M11,X1_M11
2022-10-16 07:00:00,,0833.6,5.01,0.00,30.4,28.9,00.0,39.2,32.1,16.4,0000.0,0009.95,0004.74,0004.12
2022-10-16 07:01:00,,0833.6,5.01,0.00,30.4,28.9,00.0,39.2,32.1,16.4,0000.0,0010.17,0004.74,0004.12
2022-10-16 07:02:00,,0833.5,5.01,0.00,30.4,28.9,00.0,39.2,32.2,16.3,0000.0,0010.07,0004.70,0004.11
2022-10-16 07:03:00,,0833.5,5.00,0.00,30.4,28.9,00.0,39.2,32.2,16.3,0000.0,0010.13,0004.70,0004.10
2022-10-16 07:04:00,,0833.5,5.00,0.00,30.4,28.9,00.0,39.2,32.2,16.3,0000.0,0009.38,0004.68,0004.11
2022-10-16 07:05:00,,0833.6,5.00,0.00,30.4,28.9,00.0,39.2,32.2,16.2,0000.0,0008.67,0004.67,0004.10
2022-10-16 07:06:00,,0833.5,5.00,0.00,30.4,28.9,00.0,39.2,32.2,16.2,0000.0,0008.49,0004.66,0004.11
2022-10-16 07:07:00,,0833.5,4.99,0.00,30.4,28.9,00.0,39.2,32.2,16.0,0000.0,0008.57,0004.67,0004.11
2022-10-16 07:08:00,,0833.5,4.99,0.00,30.4,28.9,00.0,39.2,32.2,15.7,0000.0,0008.56,0004.65,0004.09
2022-10-16 07:09:00,,0833.6,4.99,0.00,30.4,28.9,00.0,39.2,32.2,16.1,0000.0,0008.86,0004.59,0004.07
2022-10-16 07:10:00,,0833.5,5.02,0.00,30.4,28.9,00.0,39.2,32.2,16.1,0000.0,0008.79,0004.57,0004.06
2022-10-16 07:11:00,,0833.5,5.00,0.00,30.4,28.9,00.0,39.2,32.2,15.8,0000.0,0008.83,0004.59,0004.06
2022-10-16 07:12:00,,0833.5,5.00,0.00,30.4,28.9,00.0,39.2,32.1,15.9,0000.0,0008.68,0004.61,0004.06
2022-10-16 07:13:00,,0833.6,5.00,0.00,30.4,28.9,00.0,39.2,32.1,16.1,0000.0,0008.72,0004.62,0004.05
2022-10-16 07:14:00,,0833.6,5.00,0.00,30.4,28.9,00.0,39.2,32.2,16.0,0000.0,0008.79,0004.61,0004.05
2022-10-16 07:15:00,,0833.6,5.00,0.00,30.4,28.9,00.0,39.2,32.2,16.0,0000.0,0008.77,0004.59,0004.04
2022-10-16 07:16:00,,0833.6,5.00,0.00,30.4,29.0,00.0,39.2,32.2,16.1,0000.0,0008.97,0004.58,0004.03
2022-10-16 07:17:00,,0833.6,5.00,0.00,30.4,29.0,00.0,39.2,32.1,16.0,0000.0,0009.15,0004.55,0004.01
2022-10-16 07:18:00,,0833.6,5.00,0.00,30.4,29.0,00.0,39.2,32.1,15.6,0000.0,0009.13,0004.50,0003.99
2022-10-16 07:19:00,,0833.6,5.00,0.00,30.4,29.0,00.0,39.2,32.2,15.7,0000.0,0009.03,0004.48,0003.99
2022-10-16 07:20:00,,0833.6,5.00,0.00,30.4,29.0,00.0,39.2,32.2,15.8,0000.0,0008.60,0004.48,0003.99
2022-10-16 07:21:00,,0833.6,4.99,0.00,30.4,29.0,00.0,39.2,32.2,15.9,0000.0,0008.73,0004.50,0003.98
2022-10-16 07:22:00,,0833.6,5.00,0.00,30.4,29.0,00.0,39.2,32.2,16.0,0000.0,0008.83,0004.50,0003.97
2022-10-16 07:23:00,,0833.5,5.00,0.00,30.4,29.0,00.0,39.2,32.2,16.0,0000.0,0008.75,0004.45,0003.96
2022-10-16 07:24:00,,0833.5,4.99,0.00,30.4,29.0,00.0,39.2,32.2,15.9,0000.0,0008.60,0004.40,0003.94
2022-10-16 07:25:00,,0833.5,4.99,0.00,30.4,29.0,00.0,39.2,32.2,15.9,0000.0,0008.45,0004.37,0003.93
2022-10-16 07:26:00,,0833.6,5.00,0.00,30.4,29.0,00.0,39.2,32.2,15.7,0000.0,0008.45,0004.38,0003.93
2022-10-16 07:27:00,,0833.6,5.00,0.00,30.4,29.0,00.0,39.2,32.2,15.6,0000.0,0008.21,0004.38,0003.92
2022-10-16 07:28:00,,0833.6,5.01,0.00,30.4,29.0,00.0,39.3,32.2,15.4,0000.0,0007.72,0004.36,0003.90
2022-10-16 07:29:00,,0833.5,4.98,0.00,30.4,29.0,00.0,39.3,32.2,15.5,0000.0,0007.56,0004.35,0003.89
2022-10-16 07:30:00,,0833.6,5.00,0.00,30.4,29.0,00.0,39.3,32.2,15.5,0000.0,0008.21,0004.34,0003.89
2022-10-16 07:31:00,,0833.5,5.01,0.00,30.4,29.0,00.0,39.3,32.2,15.4,0000.0,0008.14,0004.31,0003.87
2022-10-16 07:32:00,,0833.5,5.00,0.00,30.4,29.0,00.0,39.3,32.2,15.4,0000.0,0007.92,0004.27,0003.85
2022-10-16 07:33:00,,0833.5,4.99,0.00,30.5,29.0,00.0,39.3,32.2,15.5,0000.0,0007.72,0004.23,0003.84
2022-10-16 07:34:00,,0833.6,5.00,0.00,30.4,29.0,00.0,39.3,32.2,15.5,0000.0,0007.63,0004.24,0003.84
2022-10-16 07:35:00,,0833.5,5.00,0.00,30.4,29.0,00.0,39.3,32.2,15.6,0000.0,0007.68,0004.26,0003.84
2022-10-16 07:36:00,,0833.5,5.00,0.00,30.4,29.0,00.0,39.3,32.2,15.6,0000.0,0007.69,0004.26,0003.84
2022-10-16 07:37:00,,0833.5,5.01,0.00,30.4,29.0,00.0,39.3,32.2,15.6,0000.0,0007.70,0004.27,0003.83
2022-10-16 07:38:00,,0833.5,5.01,0.00,30.4,29.0,00.0,39.3,32.2,15.5,0000.0,0007.67,0004.24,0003.84
2022-10-16 07:39:00,,0833.5,4.99,0.00,30.5,29.0,00.0,39.3,32.2,15.4,0000.0,0007.80,0004.24,0003.85
2022-10-16 07:40:00,,0833.5,5.00,0.00,30.5,29.0,00.0,39.3,32.3,15.4,0000.0,0007.98,0004.27,0003.86
2022-10-16 07:41:00,,0833.5,4.99,0.00,30.5,29.0,00.0,39.3,32.3,15.3,0000.0,0007.55,0004.30,0003.87
2022-10-16 07:42:00,,0833.5,5.00,0.00,30.5,29.0,00.0,39.3,32.2,15.4,0000.0,0007.54,0004.32,0003.87
2022-10-16 07:43:00,,0833.5,5.01,0.00,30.5,29.0,00.0,39.3,32.2,15.4,0000.0,0007.53,0004.32,0003.88
2022-10-16 07:44:00,,0833.5,5.01,0.00,30.5,29.0,00.0,39.3,32.2,15.4,0000.0,0007.59,0004.33,0003.88
2022-10-16 07:45:00,,0833.5,5.00,0.00,30.5,29.0,00.0,39.3,32.2,15.4,0000.0,0007.59,0004.32,0003.88
2022-10-16 07:46:00,,0833.5,4.98,0.00,30.5,29.0,00.0,39.3,32.2,15.4,0000.0,0007.61,0004.34,0003.88
2022-10-16 07:47:00,,0833.5,5.00,0.00,30.5,29.0,00.0,39.3,32.2,15.4,0000.0,0007.70,0004.36,0003.87
2022-10-16 07:48:00,,0833.4,5.00,0.00,30.5,29.0,00.0,39.3,32.3,15.2,0000.0,0007.81,0004.38,0003.86
2022-10-16 07:49:00,,0833.5,5.01,0.00,30.5,29.0,00.0,39.3,32.3,15.3,0000.0,0008.11,0004.40,0003.86
2022-10-16 07:50:00,,0833.5,5.00,0.00,30.5,29.0,00.0,39.3,32.2,15.3,0000.0,0008.11,0004.43,0003.86
2022-10-16 07:51:00,,0833.5,5.00,0.00,30.5,29.0,00.0,39.3,32.2,15.3,0000.0,0008.00,0004.40,0003.85
2022-10-16 07:52:00,,0833.4,4.98,0.00,30.5,29.0,00.0,39.3,32.2,15.2,0000.0,0008.12,0004.39,0003.83
2022-10-16 07:53:00,,0833.5,5.00,0.00,30.5,29.0,00.0,39.3,32.2,15.2,0000.0,0008.05,0004.38,0003.84
2022-10-16 07:54:00,,0833.4,5.00,0.00,30.5,29.0,00.0,39.3,32.2,15.3,0000.0,0008.52,0004.38,0003.84
2022-10-16 07:55:00,,0833.5,5.00,0.00,30.5,29.0,00.0,39.3,32.2,15.2,0000.0,0008.65,0004.36,0003.83
2022-10-16 07:56:00,,0833.5,5.00,0.00,30.5,29.0,00.0,39.3,32.2,15.3,0000.0,0008.71,0004.36,0003.83
2022-10-16 07:57:00,,0833.5,4.99,0.00,30.5,29.0,00.0,39.3,32.3,15.3,0000.0,0008.78,0004.33,0003.82
2022-10-16 07:58:00,,0833.5,5.01,0.00,30.5,29.0,00.0,39.3,32.2,15.3,0000.0,0008.70,0004.31,0003.83
2022-10-16 07:59:00,,0833.5,5.01,0.00,30.5,29.0,00.0,39.3,32.2,15.3,0000.0,0008.61,0004.30,0003.83
